Location: Danville Conservation Area
(38.8674°N, 91.5143°W)
Time: 00:26:57
(UTC-06:00)

Envisat - Pass Details

Date: 06 December 2021
Orbit: 764 x 766 km, 98.2° (Epoch: 23 January)

Event Time Altitude Azimuth Distance (km) Brightness Sun altitude
Rises 04:59:35 0° 14° (NNE) 3,239 6.3 -24.8°
Reaches altitude 10° 05:01:55 10° 16° (NNE) 2,309 5.5 -24.4°
Maximum altitude 05:07:00 78° 102° (ESE) 786 3.1 -23.4°
Drops below altitude 10° 05:12:04 10° 189° (S) 2,292 5.5 -22.4°
Sets 05:14:21 0° 191° (S) 3,213 6.2 -22.0°
